Location: Middle Street
(51.7167°N, 0.0333°E)
Time: 03:07:53
(UTC+00:00)

SJ 16-02 - Pass Details

Date: 20 January 2021
Orbit: 607 x 615 km, 75.0° (Epoch: 24 February)

Event Time Altitude Azimuth Distance (km) Brightness Sun altitude
Rises 20:28:41 0° 249° (WSW) 2,873 5.4 -36.6°
Reaches altitude 10° 20:31:33 10° 268° (W) 1,971 4.6 -37.1°
Enters shadow 20:32:57 15° 285° (WNW) 1,662 4.2 -37.3°
